Regional Weather Roundup
Issued by NWS

Home | Current Version | Previous Version | Text Only | Print | Product List | Glossary On
Versions: 1 2 3 4 5 6 7 8 9 10 11 12 13 14 15 16 17 18 19 20 21 22 23 24 25 26 27 28 29 30 31 32 33 34 35 36 37 38 39 40 41 42 43 44 45 46 47 48 49 50
000
ASUS45 KABQ 080610
RWRNM
NEW MEXICO REGIONAL WEATHER ROUNDUP
NATIONAL WEATHER SERVICE ALBUQUERQUE NM
1100 PM MST WED DEC 07 2016

NOTE: "FAIR" MEANS FEW OR NO CLOUDS BELOW 12,000 FEET AGL WITH NO
       SIGNIFICANT WEATHER OR OBSTRUCTIONS TO VISION.

      THIS PRODUCT IS RELEASED AS TWO VERSIONS.  ONE VERSION NEAR
      THE TOP OF THE HOUR CONTAINING PRELIMINARY DATA FROM ALBUQUERQUE
      AND OTHER STATIONS.  A FINAL VERSION WITH ADDITIONAL DATA IS
      ISSUED ABOUT 10 MINUTES AFTER THE HOUR.

NMZ501-503-504-510>518-080700-
NORTHWEST PLATEAU/NORTHCENTRAL MOUNTAINS

CITY           SKY/WX    TMP DP  RH WIND       PRES   REMARKS
FARMINGTON     FAIR      19   5  54 N5        30.24R WCI  12
6HR MIN TEMP:  19; 6HR MAX TEMP:  32;

LOS ALAMOS     FAIR      26  11  52 SW6       30.23R WCI  20
SANTA FE       CLOUDY    22  10  60 SE18G25   30.24R WCI   7
6HR MIN TEMP:  22; 6HR MAX TEMP:  35;

TAOS           FAIR      16   3  57 E9        30.23R WCI   4
ANGEL FIRE     FAIR       8   4  82 SE10      30.19R WCI  -6

$$
NMZ402-403-502-505>509-080700-
WESTCENTRAL MOUNTAINS/SOUTHWEST MOUNTAINS

CITY           SKY/WX    TMP DP  RH WIND       PRES   REMARKS
GALLUP         FAIR      20  10  65 CALM      30.23R
6HR MIN TEMP:  18; 6HR MAX TEMP:  34;

GRANTS         FAIR      24  12  60 N5        30.24R WCI  18

$$
NMZ407-409-411-412-080700-
SOUTHERN DESERTS

CITY           SKY/WX    TMP DP  RH WIND       PRES   REMARKS
DEMING         FAIR      45  35  68 SW6       30.13R
6HR MIN TEMP:  44; 6HR MAX TEMP:  54;

LAS CRUCES     FAIR      48  32  53 CALM      30.15R
HOLLOMAN AFB   FAIR      46  30  53 SE3       30.16R
T OR C         FAIR      42  22  44 N10       30.15R
6HR MIN TEMP:  42; 6HR MAX TEMP:  54;


$$
NMZ519>523-080700-
CENTRAL VALLEYS/CENTRAL HIGHLANDS

CITY           SKY/WX    TMP DP  RH WIND       PRES   REMARKS
ALBUQUERQUE    FAIR      32  15  49 E17       30.22R WCI  21
6HR MIN TEMP:  32; 6HR MAX TEMP:  41;

DOUBLE EAGLE   FAIR      26  13  59 NW12      30.22S WCI  15
MORIARTY ARPT  FAIR      18   9  69 CALM      30.32R
6HR MIN TEMP:  18; 6HR MAX TEMP:  33;

CLINES CORNERS CLOUDY    13  10  88 E16       30.28R WCI  -3
6HR MIN TEMP:  12; 6HR MAX TEMP:  31;

BELEN          CLOUDY    33  17  52 NW7       30.22S WCI  26
6HR MIN TEMP:  32; 6HR MAX TEMP:  41;

SOCORRO        CLOUDY    39  19  44 N10       30.21R WCI  32
6HR MIN TEMP:  37; 6HR MAX TEMP:  48;


$$
NMZ524>526-539-540-080700-
SOUTHCENTRAL MOUNTAINS

CITY           SKY/WX    TMP DP  RH WIND       PRES   REMARKS
RUIDOSO        CLOUDY    23  10  58 SE10      30.29R WCI  12

$$
NMZ527>531-080700-
NORTHEAST HIGHLANDS/NORTHEAST PLAINS

CITY           SKY/WX    TMP DP  RH WIND       PRES   REMARKS
LAS VEGAS      FAIR       7   4  87 NE7       30.31R WCI  -5
6HR MIN TEMP:   6; 6HR MAX TEMP:  26;

RATON          MOCLDY    11   4  73 E6        30.30R WCI   1
6HR MIN TEMP:  10; 6HR MAX TEMP:  17;

CLAYTON        CLOUDY    15  13  91 N14       30.40R WCI   0
6HR MIN TEMP:  15; 6HR MAX TEMP:  17;


$$
NMZ532>537-080700-
EASTCENTRAL PLAINS

CITY           SKY/WX    TMP DP  RH WIND       PRES   REMARKS
TUCUMCARI      CLOUDY    23  14  68 NE12      30.44R WCI  12
6HR MIN TEMP:  23; 6HR MAX TEMP:  31;

CANNON AFB     CLOUDY    22  18  85 NE20      30.40R WCI   7
6HR MIN TEMP:  22; 6HR MAX TEMP:  31;

CLOVIS AIRPORT CLOUDY    21  12  68 NE18      30.40R WCI   6

$$
NMZ028-029-538-080700-
SOUTHEAST PLAINS

CITY           SKY/WX    TMP DP  RH WIND       PRES   REMARKS
ROSWELL        CLOUDY    32  19  58 NE16G23   30.39R WCI  21
6HR MIN TEMP:  32; 6HR MAX TEMP:  49;

ARTESIA        CLOUDY    34  23  64 NE17      30.38R WCI  23
CARLSBAD       NOT AVBL


$$



USA.gov is the U.S. government's official web portal to all federal, state and local government web resources and services.